Zurück zum Katalog

COSMOS 1550

AktivMilitärPO
NORAD 14965·PAYLOAD·🇷🇺 Russia

Gestartet May 11, 1984 von Plesetsk Cosmodrome

Loading…

Nächste Überflüge (nächste 24 Stunden)

TLE

AktuellSource: Space-Track

Epoche: Sep 14, 2026, 02:56 UTC

1 14965U 84043A   26257.12290550  .00000065  00000-0  53881-4 0  9990
2 14965  82.9758 154.7731 0026602 130.0527  34.5121 13.73029838122003

Verfolge COSMOS 1550 in Echtzeit mit AllMySat

Download on the App Store